Location: Haliburton Scout Reserve
(45.0900°N, 78.3200°W)
Time: 20:08:22
(UTC-04:00)

STRAND 1 - Pass Details

Date: 04 April 2023
Orbit: 767 x 779 km, 98.4° (Epoch: 06 June)

Event Time Altitude Azimuth Distance (km) Brightness Sun altitude
Rises 05:45:38 0° 124° (SE) 3,244 ? -11.6°
Reaches altitude 10° 05:48:27 10° 108° (ESE) 2,319 ? -11.1°
Maximum altitude 05:52:10 21° 61° (ENE) 1,696 ? -10.5°
Drops below altitude 10° 05:55:53 10° 15° (NNE) 2,324 ? -9.9°
Sets 05:58:42 0° 359° (N) 3,254 ? -9.4°
